Montreal Mirabel, Ontario

1:02 PM EDT on April 25, 2017 (GMT -0400)
Montreal International (Mirabel)

Weather History for CYMX - September, 2014

Change the Weather History Date:

Tuesday, September 16, 2014

  Actual Average Record
Temperature  
Mean Temperature 57 °F -  
Max Temperature 64 °F 67 °F 80 °F (2015)
Min Temperature 50 °F 48 °F 35 °F (2007)
Degree Days  
Heating Degree Days 8    
Growing Degree Days 7 (Base 50)    
Moisture  
Dew Point 48 °F    
Average Humidity 79    
Maximum Humidity 100    
Minimum Humidity 52    
Precipitation  
Precipitation 0.00 in - - ()
Sea Level Pressure  
Sea Level Pressure 29.97 in    
Wind  
Wind Speed 4 mph ()    
Max Wind Speed 7 mph    
Max Gust Speed 21 mph    
Visibility 7.7 miles    
Events Rain    
Averages and records for this station are not official NWS values.
T = Trace of Precipitation, MM = Missing Value Source: Averaged Metar Reports

Daily Weather History Graph

Daily Weather History Graph

Search for Another Location

Airport or City:

Trip Planner

Search our weather history database for the weather conditions in past years. The results will help you decide how hot, cold, wet, or windy it might be!

Date:

Astronomy

Sep. 16, 2014 Rise Set
Actual Time 6:35 AM EDT 7:05 PM EDT
Civil Twilight 6:05 AM EDT 7:35 PM EDT
Nautical Twilight 5:30 AM EDT 8:10 PM EDT
Astronomical Twilight 4:53 AM EDT 8:46 PM EDT
Moon No Moon Rise 2:40 PM EDT (9/16)
Length of Visible Light 13h 29m
Length of Day
12h 29m
Last Quarter, 44% of the Moon is Illuminated
Sep 16
Last Quarter
Sep 24
New
Oct 1
First Quarter
Oct 8
Full
Oct 15
Last Quarter

Hourly Weather History & Observations

Time (EDT) Temp. Dew Point Humidity Pressure Visibility Wind Dir Wind Speed Gust Speed Precip Events Conditions
12:00 AM 51.8 °F 50.0 °F 94% 30.01 in 25.0 mi SSW 5.8 mph - N/A   Overcast
2:00 AM 51.8 °F 50.0 °F 94% 29.99 in 10.0 mi SW 4.6 mph - N/A   Mostly Cloudy
2:43 AM 51.8 °F 50.0 °F 94% 29.99 in 10.0 mi West 3.5 mph - N/A   Mostly Cloudy
3:00 AM 51.8 °F 50.0 °F 94% 29.99 in 10.0 mi WSW 3.5 mph - N/A   Overcast
3:34 AM 51.8 °F 50.0 °F 94% 29.99 in 8.0 mi SSW 5.8 mph - N/A   Overcast
4:00 AM 51.8 °F 50.0 °F 94% 29.99 in 6.0 mi SSW 4.6 mph - N/A   Overcast
5:00 AM 51.8 °F 50.0 °F 94% 29.98 in 6.0 mi SSW 5.8 mph - N/A   Overcast
6:00 AM 51.8 °F 50.0 °F 94% 29.99 in 6.0 mi SW 5.8 mph - N/A   Mostly Cloudy
6:22 AM 51.8 °F 50.0 °F 94% 29.99 in 3.0 mi West 3.5 mph - N/A   Mostly Cloudy
7:00 AM 50.0 °F 50.0 °F 100% 30.00 in 3.0 mi Variable 3.5 mph - N/A   Overcast
7:52 AM 51.8 °F 50.0 °F 94% 30.01 in 4.0 mi West 5.8 mph - N/A   Mostly Cloudy
8:00 AM 51.8 °F 50.0 °F 94% 30.01 in 4.0 mi West 4.6 mph - N/A   Mostly Cloudy
9:00 AM 55.4 °F 50.0 °F 82% 30.00 in 10.0 mi WSW 5.8 mph - N/A   Scattered Clouds
10:00 AM 55.4 °F 50.0 °F 82% 30.00 in 20.0 mi WNW 4.6 mph - N/A   Mostly Cloudy
11:00 AM 59.0 °F 50.0 °F 72% 29.99 in 25.0 mi West 6.9 mph - N/A   Scattered Clouds
12:00 PM 59.0 °F 48.2 °F 67% 29.97 in 25.0 mi WSW 5.8 mph - N/A   Mostly Cloudy
1:00 PM 60.8 °F 46.4 °F 59% 29.95 in 45.0 mi SW 6.9 mph 20.7 mph N/A   Mostly Cloudy
2:00 PM 60.8 °F 44.6 °F 55% 29.94 in 45.0 mi West 5.8 mph - N/A   Mostly Cloudy
2:21 PM 60.8 °F 46.4 °F 59% 29.94 in 45.0 mi NW 6.9 mph - N/A Rain Light Rain Showers
3:00 PM 57.2 °F 48.2 °F 72% 29.94 in 45.0 mi Calm Calm - N/A   Mostly Cloudy
4:00 PM 64.4 °F 46.4 °F 52% 29.92 in 45.0 mi WSW 5.8 mph - N/A   Mostly Cloudy
5:00 PM 62.6 °F 46.4 °F 55% 29.92 in 45.0 mi Variable 4.6 mph - N/A   Mostly Cloudy
6:00 PM 60.8 °F 44.6 °F 55% 29.92 in 45.0 mi West 5.8 mph - N/A   Partly Cloudy
7:00 PM 57.2 °F 44.6 °F 63% 29.94 in 45.0 mi West 3.5 mph - N/A   Partly Cloudy
8:00 PM 55.4 °F 44.6 °F 67% 29.94 in 25.0 mi WSW 3.5 mph - N/A   Partly Cloudy
9:00 PM 51.8 °F 44.6 °F 76% 29.95 in 25.0 mi West 2.3 mph - N/A   Partly Cloudy
10:00 PM 50.0 °F 44.6 °F 82% 29.96 in 25.0 mi Variable 2.3 mph - N/A   Clear
11:00 PM 50.0 °F 44.6 °F 82% 29.96 in 25.0 mi Variable 2.3 mph - N/A   Clear